Home > Weather > Caxias do Sul > Past weeks

Flag for Brazil Weather for the Past 2 Weeks in Caxias do Sul, Rio Grande do Sul, Brazil

Now
54 °F

Fog.


Feels Like: 54 °F
Forecast: 43 / 64 °F
Wind: 1 mph from North

Location: Porto Alegre Aero-Porto

Current Time: May 4, 2016 at 9:27:43 AM

Latest Report: May 4, 2016 at 8:00 AM


Visibility: 0 mi

Pressure: 30.18 "Hg (27.46 "Hg at 787m altitude)

Humidity: 100%

Dew Point: 54 °F

Location of Caxias do SulLocation

Historic Weather in Caxias do Sul — Graph

°F

Caxias do Sul Temperature Yesterday

Maximum temperature yesterday: 68 °F (at 2:00 PM)
Minimum temperature yesterday: 55 °F (at 2:00 AM)
Average temperature yesterday: 61 °F

High & Low Weather Summary for the Past Weeks

 TemperatureHumidityPressure
High93 °F (Apr 19, 1:00 PM)100% (Apr 21, 3:00 AM)30.27 "Hg (Apr 21, 3:00 AM)
Low32 °F (Apr 24, 11:00 PM)27% (Apr 21, 2:00 PM)29.53 "Hg (Apr 25, 4:00 PM)
Average63 °F81%30.00 "Hg
* Reported Apr 19 8:00 AM — May 4 8:00 AM, Caxias do Sul, Weather by CustomWeather, © 2016

Note: Actual official high and low records may vary slightly from our data, if they occured in-between our weather recording intervals... More about our weather records

Advertising

Caxias do Sul Weather History for the Previous 24 Hours

Scroll right to see more
 ConditionsComfort  
Time TempWeatherWind HumidityBarometerVisibility
8:00 AM
Wed, May 4
54 °FFog.1 mph100%N/A1 mi
7:00 AM52 °FFog.2 mph100%30.15 "Hg0 mi
6:00 AM50 °FFog.3 mph100%30.12 "Hg1 mi
5:00 AM52 °FPassing clouds.No wind100%30.12 "HgN/A
4:00 AM54 °FPassing clouds.3 mph100%30.15 "HgN/A
3:00 AM54 °FPassing clouds.3 mph94%30.15 "HgN/A
2:00 AM55 °FClear.2 mph94%30.15 "Hg10 mi
1:00 AM57 °FPassing clouds.No wind88%30.18 "HgN/A
12:00 AM57 °FPassing clouds.3 mph88%30.18 "HgN/A
11:00 PM
Tue, May 3
57 °FPassing clouds.2 mph94%30.18 "HgN/A
10:00 PM57 °FPassing clouds.3 mph94%30.18 "HgN/A
9:00 PM59 °FPassing clouds.5 mph88%30.15 "HgN/A
8:00 PM59 °FClear.2 mph88%30.15 "Hg10 mi
7:00 PM59 °FClear.3 mph88%30.12 "Hg10 mi
6:00 PM63 °FClear.9 mph73%30.12 "Hg10 mi
5:00 PM64 °FClear.9 mph68%30.12 "Hg10 mi
4:00 PM66 °FPassing clouds.9 mph64%30.12 "HgN/A
3:00 PM68 °FPassing clouds.9 mph60%30.12 "HgN/A
2:00 PM68 °FPassing clouds.6 mph56%30.12 "HgN/A
1:00 PM66 °FPassing clouds.5 mph64%30.15 "HgN/A
12:00 PM66 °FBroken clouds.5 mph64%30.18 "HgN/A
11:00 AM64 °FPartly sunny.8 mph73%30.21 "HgN/A
10:00 AM63 °FPartly sunny.5 mph77%30.21 "HgN/A
9:00 AM63 °FScattered clouds.5 mph83%30.18 "HgN/A
Weather by CustomWeather, © 2016

See weather overviewHow to use our weather pages